FW7661 Weather Reports


time (UTC)temp
F
wind
direction
speed
knots
gust
knots
rain 1hr
in
rain 24hr
in
rain mn
in
humidity
%
barometer
mb
20260505064559 55 0 0.0 2.6 0.00 0.00 0.00 86 1012.5
20260505063049 56 237 0.9 1.7 0.00 0.00 0.00 85 1012.3
20260505061602 56 230 0.0 0.9 0.00 0.00 0.00 84 1012.1
20260505060055 56 287 0.9 1.7 0.00 0.00 0.00 84 1011.9
20260505054555 57 261 0.9 3.5 0.00 0.00 0.00 83 1012.1
20260505053102 57 262 0.9 4.3 0.00 0.00 0.00 82 1011.9
20260505051551 58 284 3.5 6.1 0.00 0.00 0.00 80 1011.7
20260505041551 62 257 0.9 4.3 0.00 0.00 0.00 74 1010.9
20260505040051 63 250 1.7 6.1 0.00 0.00 0.00 73 1010.8
20260505034550 64 240 3.5 8.7 0.00 0.00 0.00 71 1010.6
20260505033048 65 219 3.5 9.6 0.00 0.00 0.00 69 1010.3
20260505031551 66 235 5.2 9.6 0.00 0.00 0.00 67 1010.0
20260505030049 67 239 6.1 11.3 0.00 0.00 0.00 64 1009.9
20260505024551 69 230 5.2 9.6 0.00 0.00 0.00 61 1009.8
20260505023056 70 255 5.2 10.4 0.00 0.00 0.00 59 1009.8
20260505021549 72 230 4.3 8.7 0.00 0.00 0.00 57 1009.8
20260505020056 73 239 6.1 9.6 0.00 0.00 0.00 56 1009.6
20260505014554 75 293 4.3 9.6 0.00 0.00 0.00 55 1009.7
20260505013051 75 293 3.5 7.8 0.00 0.00 0.00 53 1009.8
20260505011554 75 226 3.5 9.6 0.00 0.00 0.00 52 1009.8
20260505010051 76 256 3.5 9.6 0.00 0.00 0.00 51 1009.8
20260505004552 76 297 5.2 9.6 0.00 0.00 0.00 48 1009.8
20260505003050 76 270 4.3 8.7 0.00 0.00 0.00 49 1009.8
20260505001549 76 295 4.3 9.6 0.00 0.00 0.00 48 1009.9
20260505000050 76 272 5.2 7.8 0.00 0.00 0.00 42 1009.9
20260504234548 76 298 5.2 9.6 0.00 0.00 0.00 41 1009.8
20260504233053 77 315 1.7 7.8 0.00 0.00 0.00 45 1009.9
20260504231548 77 283 3.5 9.6 0.00 0.00 0.00 44 1009.9
20260504230049 77 221 3.5 8.7 0.00 0.00 0.00 39 1010.0
20260504224552 77 219 3.5 9.6 0.00 0.00 0.00 41 1010.3
20260504223049 77 233 4.3 7.0 0.00 0.00 0.00 42 1010.3
20260504221554 75 282 3.5 8.7 0.00 0.00 0.00 44 1010.5
20260504220109 75 304 3.5 7.8 0.00 0.00 0.00 45 1010.6
20260504214554 75 238 3.5 8.7 0.00 0.00 0.00 47 1010.7
20260504213059 75 244 4.3 7.8 0.00 0.00 0.00 47 1010.7
20260504211549 75 286 2.6 7.8 0.00 0.00 0.00 50 1010.8
20260504210052 74 280 3.5 7.0 0.00 0.00 0.00 49 1010.8
20260504204549 73 302 4.3 7.8 0.00 0.00 0.00 52 1010.8
20260504203045 74 276 3.5 7.8 0.00 0.00 0.00 50 1010.8
20260504201546 74 262 3.5 7.0 0.00 0.00 0.00 50 1010.7
20260504200055 73 349 3.5 7.0 0.00 0.00 0.00 51 1010.8
20260504194550 74 289 3.5 7.0 0.00 0.00 0.00 51 1010.9
20260504193050 73 223 1.7 7.0 0.00 0.00 0.00 52 1010.8
20260504191556 72 240 4.3 7.0 0.00 0.00 0.00 52 1010.8
20260504190107 72 283 4.3 7.0 0.00 0.00 0.00 56 1010.9
20260504184610 73 276 2.6 6.1 0.00 0.00 0.00 54 1011.0
20260504183107 72 238 3.5 5.2 0.00 0.00 0.00 56 1011.1
20260504181551 72 274 0.9 4.3 0.00 0.00 0.00 54 1011.1
20260504180059 71 264 2.6 4.3 0.00 0.00 0.00 57 1010.9
20260504174600 69 239 2.6 6.1 0.00 0.00 0.00 58 1011.7
20260504173055 70 284 1.7 4.3 0.00 0.00 0.00 58 1011.6
20260504171551 69 231 1.7 4.3 0.00 0.00 0.00 59 1011.5
20260504081549 60 112 0.0 1.7 0.00 0.00 0.00 74 1009.6